Chicago, IL - ORD

Touching down in the Windy City

The Chicago O'Hare International Airport is affectionately known as "O'Hare" and is in a constant battle with ATL - Atlanta Hartsfield-Jackson as the busiest airport in the United States. Boasting a very impressive list of over 225 destinations with it's 8 runways makes it extremely impressive to say the least. AAG operates over 45% of the total passenger share out of ORD.

ORD Based Pilots: 27   Miles to ORD: 302788
Flights from ORD: 453   Total Hours: 1705.83
Routes using ORD: 1983   From ORD: 886.17
Total Miles: 638208   Hours To ORD: 819.66
Miles from ORD: 335420   ORD Charts: Click Here
VATSIM METAR: KORD 042151Z VRB04KT 10SM BKN250 22/01 A3015 RMK AO2 SLP210 T02220011
 
         
View More: Click Here
   

 

Earn Your Wings

Interested in joining our ORD hub? Hover for more!

Your journey starts here. Your journey starts now. A whole new experience is at your fingertips.

Like what you see and ready to join the team?

A rewarding and memorable virtual airline experience awaits!